Location: Mountain Grove
(34.0887°N, 86.6172°W)
Time: 15:21:20
(UTC+00:00)

Cosmos 1536 - Pass Details

Date: 14 July 2020
Orbit: 539 x 560 km, 82.5° (Epoch: 13 August)

Event Time Altitude Azimuth Distance (km) Brightness Sun altitude
Exits shadow 08:25:37 39° 313° (NW) 847 3.7 -23.5°
Drops below altitude 10° 08:28:42 10° 353° (N) 1,845 6.0 -23.1°
Sets 08:30:57 0° 359° (N) 2,741 7.1 -22.8°
